sat.trackr.live / text

‹ back to catalog

STARLINK-32026

NORAD 60098 · 2024-117H

PAYLOAD ACTIVE UNKNOWN

§ Identity

Operator
Country
US
Launch date
2024-06-23
Launch site
AFETR
Launch vehicle
Mass (kg)
RCS (m²)

Purposes: comms

External: N2YO · Heavens-Above · Gunter

§ Orbital elements

Epoch: 2026-05-25T03:39:45.661248Z

Period
94.11 min
Inclination
53.1611°
Eccentricity
0.0001047
Mean motion
15.30196071 rev/d
Perigee alt
474.5 km
Apogee alt
475.9 km
Semi-major
6,853.4 km
B*
3.1312e-5
RAAN
41.9338°
Arg perigee
109.9043°
Mean anomaly
250.2070°
Rev number
10,859

§ Raw data

STARLINK-320261 60098U 24117H   26145.15261182  .00000568  00000+0  31312-4 0  99942 60098  53.1611  41.9338 0001047 109.9043 250.2070 15.30196071108590

JSON: /api/v1/satellites/60098 · /tle

For live sub-satellite position, see the globe view (requires WebGL).

§ Visibility from observer

Set your observer location to see the next 7 days of passes ≥ 10°. The values pass through the URL so the page stays shareable.

No JS? Fill the form by hand. The geolocation button needs JavaScript.